Regional Weather Roundup
Issued by NWS State College, PA

Home | Current Version | Previous Version | Text Only | Print | Product List | Glossary On
Versions: 1 2 3 4 5 6 7 8 9 10 11 12 13 14 15 16 17 18 19 20 21 22 23 24 25 26 27 28 29 30 31 32 33 34 35 36 37 38 39 40 41 42 43 44 45 46 47 48 49 50
000
ASUS41 KCTP 011410
RWRCTP

REGIONAL WEATHER ROUNDUP
NATIONAL WEATHER SERVICE STATE COLLEGE PA
1000 AM EDT SAT AUG 01 2015

Note: "fair" indicates few or no clouds below 12,000 feet with no
significant weather and/or obstructions to visibility.

* = STATION THAT DOES NOT REPORT PRECIPITATION /E.G. RAIN...SNOW...ETC/
    THUNDER OR FOG.

PAZ002>004-007>009-013>016-020>023-029>032-011500-
WESTERN PENNSYLVANIA

CITY           SKY/WX    TMP DP  RH WIND       PRES   REMARKS
ERIE           SUNNY     75  58  55 NW9       29.92R
MEADVILLE      SUNNY     73  58  59 NW8       29.95R
FRANKLIN*      MOSUNNY   70  57  64 NW7       29.96S
NEW CASTLE     FAIR      76  59  55 NW9       29.95S
BEAVER COUNTY  SUNNY     73  59  60 W5        29.95R
BUTLER*        SUNNY     73  61  64 NW3       29.96S
PITTSBURGH INT MOSUNNY   75  59  57 NW8       29.95R
PITTSBURGH     SUNNY     74  55  51 W7        29.94S
INDIANA*       SUNNY     73  63  68 W6        29.97S
LATROBE        MOSUNNY   73  61  64 W6        29.95S
WASHINGTON CO* NOT AVBL
$$

PAZ004>006-010>012-017>019-024>028-033>037-041-042-045-046-049>053-011500-
CENTRAL PENNSYLVANIA

CITY           SKY/WX    TMP DP  RH WIND       PRES   REMARKS
BRADFORD       MOSUNNY   69  55  60 NW9       29.94R
DUBOIS         SUNNY     73  57  57 NW12      29.93S
CLEARFIELD     SUNNY     74  58  57 NW8       29.93R
JOHNSTOWN      MOSUNNY   69  57  65 W13       29.97R
ALTOONA        SUNNY     76  58  53 W10       29.94S
STATE COLLEGE  MOSUNNY   73  61  64 W12       29.91S
WILLIAMSPORT   SUNNY     77  61  57 W8        29.85S
SELINSGROVE    SUNNY     80  63  55 W7        29.86S
FT INDIANTOWN  NOT AVBL
CAPITAL CITY   SUNNY     82  57  42 W13       29.86F
HARRISBURG     MOSUNNY   80  62  54 W8        29.86S
YORK           MOSUNNY   78  64  61 SW8       29.88S
$$

PAZ038>040-043-044-047-048-054-055-060>062-067>071-011500-
EASTERN PENNSYLVANIA

CITY           SKY/WX    TMP DP  RH WIND       PRES   REMARKS
SCRANTON       MOSUNNY   77  62  59 VRB3      29.85R
MOUNT POCONO   SUNNY     74  58  57 NW12      29.89R
ALLENTOWN      MOSUNNY   78  65  63 W8        29.84S
QUAKERTOWN*    MOSUNNY   77  64  65 W7        29.86F
READING        SUNNY     79  64  60 SW6       29.84F
LANCASTER      MOSUNNY   78  64  61 W8        29.87S
COATESVILLE    SUNNY     77  64  65 W8        29.89S
POTTSTOWN      PTSUNNY   77  64  64 W6        29.87S
BLUE BELL      MOSUNNY   81  64  57 W6        29.85S
DOYLESTOWN     PTSUNNY   76  62  62 W9        29.84F
WILLOW GROVE   NOT AVBL
NORTH PHILA    PTSUNNY   84  60  44 W12       29.85F
PHILADELPHIA   PTSUNNY   83  61  47 W10       29.85F
$$


USA.gov is the U.S. government's official web portal to all federal, state and local government web resources and services.